TimeEDT,TemperatureF,Dew PointF,Humidity,Sea Level PressureIn,VisibilityMPH,Wind Direction,Wind SpeedMPH,Gust SpeedMPH,PrecipitationIn,Events,Conditions,WindDirDegrees,DateUTC
12:54 AM,59.0,48.9,69,29.94,10.0,North,5.8,-,N/A,,Clear,10,2013-09-14 04:54:00
1:54 AM,57.0,48.9,74,29.94,10.0,NNW,9.2,-,N/A,,Clear,340,2013-09-14 05:54:00
2:54 AM,55.9,48.9,77,29.94,10.0,NNW,8.1,-,N/A,,Partly Cloudy,340,2013-09-14 06:54:00
3:54 AM,55.9,48.9,77,29.94,10.0,North,3.5,-,N/A,,Partly Cloudy,10,2013-09-14 07:54:00
4:54 AM,54.0,48.9,83,29.94,10.0,Calm,Calm,-,N/A,,Clear,0,2013-09-14 08:54:00
5:54 AM,53.1,48.9,86,29.96,10.0,NE,3.5,-,N/A,,Scattered Clouds,50,2013-09-14 09:54:00
6:54 AM,53.1,50.0,89,30.00,10.0,NNE,4.6,-,N/A,,Mostly Cloudy,20,2013-09-14 10:54:00
7:54 AM,54.0,50.0,86,30.03,10.0,North,5.8,-,N/A,,Mostly Cloudy,350,2013-09-14 11:54:00
8:54 AM,55.9,50.0,80,30.05,10.0,Variable,6.9,-,N/A,,Mostly Cloudy,0,2013-09-14 12:54:00
9:54 AM,60.1,50.0,69,30.06,10.0,Calm,Calm,-,N/A,,Scattered Clouds,0,2013-09-14 13:54:00
10:54 AM,63.0,50.0,63,30.07,10.0,Calm,Calm,-,N/A,,Partly Cloudy,0,2013-09-14 14:54:00
11:54 AM,66.0,50.0,56,30.06,10.0,Calm,Calm,-,N/A,,Clear,0,2013-09-14 15:54:00
12:54 PM,68.0,48.9,50,30.05,10.0,Variable,4.6,-,N/A,,Clear,0,2013-09-14 16:54:00
1:54 PM,71.1,50.0,47,30.04,10.0,South,8.1,-,N/A,,Clear,190,2013-09-14 17:54:00
2:54 PM,71.1,48.9,45,30.03,10.0,Variable,4.6,-,N/A,,Clear,0,2013-09-14 18:54:00
3:54 PM,73.0,50.0,44,30.02,10.0,Variable,4.6,-,N/A,,Clear,0,2013-09-14 19:54:00
4:54 PM,72.0,51.1,48,30.03,10.0,South,6.9,-,N/A,,Clear,190,2013-09-14 20:54:00
5:54 PM,72.0,52.0,49,30.05,10.0,SSE,6.9,-,N/A,,Mostly Cloudy,160,2013-09-14 21:54:00
6:54 PM,68.0,54.0,61,30.06,10.0,South,6.9,-,N/A,,Scattered Clouds,170,2013-09-14 22:54:00
7:54 PM,64.0,55.0,73,30.08,10.0,Calm,Calm,-,N/A,,Clear,0,2013-09-14 23:54:00
8:54 PM,60.1,55.9,86,30.10,10.0,Calm,Calm,-,0.00,,Clear,0,2013-09-15 00:54:00
9:54 PM,59.0,55.9,90,30.12,10.0,Calm,Calm,-,N/A,,Clear,0,2013-09-15 01:54:00
10:54 PM,57.9,55.0,90,30.12,10.0,SSE,4.6,-,N/A,,Clear,150,2013-09-15 02:54:00
11:54 PM,55.9,55.0,97,30.14,10.0,Calm,Calm,-,N/A,,Clear,0,2013-09-15 03:54:00